Regional Weather Roundup
Issued by NWS

Home | Current Version | Previous Version | Text Only | Print | Product List | Glossary On
Versions: 1 2 3 4 5 6 7 8 9 10 11 12 13 14 15 16 17 18 19 20 21 22 23 24 25 26 27 28 29 30 31 32 33 34 35 36 37 38 39 40 41 42 43 44 45 46 47 48 49 50
000
ASCA44 KEWX 012020
RWRMX

LATIN AMERICA AND CARIBBEAN REGIONAL WEATHER ROUNDUP
NATIONAL WEATHER SERVICE AUSTIN/SAN ANTONIO TX
200 PM CST WED MAR 01 2017

NOTE: "FAIR" INDICATED FEW OR NO CLOUDS BELOW 12,000 FEET WITH NO
SIGNIFICANT WEATHER AND/OR OBSTRUCTIONS TO VISIBILITY.

BAJA CALIFORNIA

CITY           SKY/WX    TMP DP  RH WIND       PRES   REMARKS
LORETO         PTSUNNY   73  59  60 NE21      30.07F
LA PAZ         PTSUNNY   75  45  33 N13       30.09F
MEXICALI       SUNNY     70  27  19 N7        30.29F
S.J. DEL CABO  SUNNY     84  34  16 N16       30.01F
TIJUANA        SUNNY     66  37  34 CALM      30.25F

NORTHWESTERN MEXICO

CITY           SKY/WX    TMP DP  RH WIND       PRES   REMARKS
CULIACAN       PTSUNNY   86  57  37 W5        29.95F
DURANGO        SUNNY     77  21  12 S9        30.23F
GUAYMAS        MOSUNNY   77  52  41 S12       30.06S
HERMOSILLO     SUNNY     79  41  25 E6        30.10F
CD. JUAREZ     SUNNY     63  50  63 SW6       30.20F
LOS MOCHIS     PTSUNNY   79  43  27 NW22      30.03F
OBREGON        PTSUNNY   79  46  31 W8        30.02F

NORTHEASTERN MEXICO

CITY           SKY/WX    TMP DP  RH WIND       PRES   REMARKS
CHIHUAHUA      MOSUNNY   66  27  22 N6        30.25F
MATAMOROS      PTSUNNY   86  70  58 CALM      29.95F HX  90
MONCLOVA       MOSUNNY   79  19  11 N23       30.09F
MONTERREY      SUNNY     88  25  10 N16G30    30.02F
NUEVO LAREDO   PTSUNNY   86  37  17 N17       30.05F
PIEDRAS NEGRAS MOSUNNY   79  45  29 NW14      30.13F
REYNOSA        PTSUNNY   79  64  61 NW14      29.97F
SALTILLO       SUNNY     77  48  36 N9        30.22F
TORREON        MOSUNNY   84  25  11 S7        30.11F
CD. VICTORIA   MOSUNNY   93  59  31 N15       29.93F HX  92

WESTERN MEXICO

CITY           SKY/WX    TMP DP  RH WIND       PRES   REMARKS
AGUASCALIENTES SUNNY     81  23  12 NW7       30.23F
COLIMA         SUNNY     86  52  30 W9        29.97F
DEL BAJIO      SUNNY     84  36  17 W8        30.25F
GUADALAJARA    SUNNY     82  28  14 E8        30.15F
MANZANILLO     SUNNY     79  72  78 W16       29.86F
MAZATLAN       MOSUNNY   82  61  47 NW14      29.94F
P. VALLARTA    SUNNY     77  66  69 S16       29.92F
URUAPAN        SUNNY     79  46  31 S9        30.15F
ZACATECAS      SUNNY     75  30  19 W6        30.28F

CENTRAL MEXICO

CITY           SKY/WX    TMP DP  RH WIND       PRES   REMARKS
CUERNAVACA     SUNNY     86  45  23 E5        30.06F
MEXICO CITY    SUNNY     79  23  12 NW14      30.27F
MORELIA        SUNNY     82  37  20 NE9       30.19F
POZA RICA      MOSUNNY   90  68  48 NE7       29.94F HX  93
PUEBLA         SUNNY     81  23  12 E5        30.25F
QUERETARO      MOSUNNY   81  30  16 N10       30.24F
S. LUIS POTOSI SUNNY     82  14   7 E6        30.20F
TAMPICO        MOSUNNY   84  72  65 SE9       29.90F
TOLUCA         SUNNY     73  28  19 W9        30.34F

SOUTHERN MEXICO

CITY           SKY/WX    TMP DP  RH WIND       PRES   REMARKS
ACAPULCO       SUNNY     84  70  61 SW9       29.87
B. DE HUATULCO SUNNY     90  68  48 S12       29.92F HX  93
OAXACA         PTSUNNY   84  39  20 NW6       30.12F
P. ESCONDIDO   SUNNY     82  68  61 S9        29.97F
VERACRUZ       SUNNY     86  73  66 E7        29.87F HX  93
ZIHUATANEJO      N/A    N/A N/A N/A MISG        N/A

YUCATAN PENINSULA

CITY           SKY/WX    TMP DP  RH WIND       PRES   REMARKS
CAMPECHE       MOSUNNY   93  66  40 SE21      29.87F HX  96
CANCUN         PTSUNNY   84  72  65 SE16      30.01F
CHETUMAL       MOSUNNY   86  73  66 SE14      29.96F HX  93
CD. DEL CARMEN MOSUNNY   91  68  46 E14       29.87F HX  95
COZUMEL        MOSUNNY   86  70  58 SE12      29.99F HX  90
MERIDA         PTSUNNY   95  61  31 SE8       29.91F HX  95
MINATITLAN     SUNNY     90  75  62 CALM      29.83F HX 100
TAPACHULA      SUNNY     93  68  43 W16       29.85F HX  97
TUX. GUTIERREZ SUNNY     93  57  29 N5        29.87F HX  92
VILLAHERMOSA   SUNNY     90  70  51 NE9       29.88F HX  95

CENTRAL AMERICA

CITY           SKY/WX    TMP DP  RH WIND       PRES   REMARKS
BELIZE CITY    MOSUNNY   84  75  74 E10       29.95F HX  92
MANAGUA        PTCLDY    93  64  38 E23       29.80F HX  95

CARIBBEAN

CITY           SKY/WX    TMP DP  RH WIND       PRES   REMARKS
ARUBA          MOSUNNY   86  73  66 E22       29.86F HX  93
CURACAO        MOSUNNY   82  73  74 E15       29.92S
KINGSTON       MOSUNNY   86  72  62 SE26      29.94S HX  92
NASSAU         MOSUNNY   84  63  48 SE8       30.12F
SAN JUAN       MOSUNNY   81  72  74 E22       30.03F
ST. CROIX      MOSUNNY   84  66  54 E22G30    30.02F
ST. KITTS      MOSUNNY   82  68  61 NE20      30.03S
ST. MAARTEN    MOSUNNY   82  66  57 E17G30    30.03S
ST. THOMAS     MOSUNNY   82  70  65 E16       30.02F

$$




USA.gov is the U.S. government's official web portal to all federal, state and local government web resources and services.